Location: Willingham
(52.3167°N, 0.0667°E)
Time: 21:05:41
(UTC+00:00)

Cosmos 1346 Rocket - Pass Details

Date: 19 May 2025
Orbit: 485 x 499 km, 81.2° (Epoch: 21 June)

Event Time Altitude Azimuth Distance (km) Brightness Sun altitude
Rises 21:05:23 0° 344° (NNW) 2,590 7.6 -8.7°
Reaches altitude 10° 21:07:31 10° 342° (NNW) 1,700 6.6 -8.9°
Maximum altitude 21:11:12 63° 261° (W) 553 3.0 -9.3°
Drops below altitude 10° 21:14:50 10° 180° (S) 1,676 4.8 -9.6°
Enters shadow 21:15:09 - 179° (S) 1,806 5.0 -9.7°
